Wind_Speed
16 19 22 21 20 19 18 18 18 17 15 15 16 16 14 11 10 9 9 10 9 11 10 10 10 10 10 10 11 12 13 13 14 14 15 15 16 15 15 16 16 16 17
22 19 23 21 20 19 19 18 17 17 15 15 14 13 13 13 12 11 10 10 11 10 10 10 11 11 11 11 11 12 12 13 12 12 14 14 14 15 15 15 15 15 17
23 20 20 21 19 19 19 19 17 17 15 15 15 13 12 13 12 11 10 11 11 10 10 11 11 10 11 11 12 12 12 11 12 11 13 11 11 13 15 15 15 15 16
23 21 20 20 20 18 19 18 17 16 16 15 14 13 12 11 11 11 11 10 10 10 10 11 11 11 11 11 12 11 12 12 12 14 10 11 11 12 14 15 14 15 15
22 21 20 21 19 18 17 16 17 16 14 15 14 13 13 12 12 12 10 10 9 9 10 10 10 11 12 11 11 12 11 11 13 12 11 11 11 12 14 13 13 14 14
22 20 21 20 19 17 16 16 16 15 15 14 14 14 13 13 11 12 11 10 10 10 9 10 10 10 10 10 11 13 10 10 12 12 11 11 11 14 13 13 13 14 14
22 20 20 20 19 17 15 16 16 14 14 14 15 16 14 13 13 12 12 11 11 10 9 10 10 10 9 10 10 9 9 11 11 11 11 10 12 13 13 12 12 13 14
23 21 19 18 18 16 15 16 15 15 15 14 14 15 15 13 13 11 11 12 11 9 9 10 11 11 10 10 11 11 11 11 10 10 10 11 12 12 12 12 12 13 13
21 20 19 17 16 15 14 14 14 14 14 14 14 14 14 13 13 11 10 11 12 11 10 10 11 10 10 11 10 11 10 11 11 10 9 10 9 11 10 11 12 12 12
20 19 19 16 16 14 13 13 13 13 13 12 13 13 12 11 11 11 10 10 12 10 10 10 11 9 10 11 10 9 10 12 10 9 10 9 9 10 10 10 11 10 10
20 19 18 17 16 14 13 12 12 12 12 12 11 12 11 9 10 9 9 10 11 10 10 10 9 9 10 12 10 10 10 9 9 9 8 9 9 8 10 9 10 10 9
22 21 19 17 16 14 13 13 12 12 11 10 10 10 9 9 9 8 8 8 10 9 9 10 8 8 9 8 10 6 7 8 8 8 8 9 8 8 9 8 8 8 9
24 21 19 18 17 15 13 13 12 11 10 10 11 11 9 8 7 7 6 5 6 6 6 6 5 4 4 6 6 6 7 7 6 7 7 8 8 6 8 7 8 7 7
24 22 20 18 17 15 13 13 12 11 10 9 10 9 8 6 7 7 5 5 7 6 5 6 4 2 2 3 4 6 6 6 6 6 6 7 6 6 5 6 7 6 6
24 22 22 20 18 16 14 12 12 11 10 7 8 7 8 6 6 7 6 7 7 7 6 5 4 4 2 3 4 4 5 4 5 5 6 6 4 5 5 4 5 4 3
23 23 23 21 18 17 15 15 13 11 9 8 7 6 6 7 8 6 5 6 6 7 6 4 4 4 5 4 5 4 4 4 5 5 5 5 4 1 3 4 4 4 3
25 23 24 22 20 20 18 16 14 11 9 7 7 7 6 7 6 5 5 5 5 5 6 5 2 4 5 6 7 6 5 5 4 4 4 3 2 3 3 0 1 1 1
24 25 24 22 21 20 18 18 14 12 10 8 7 6 5 5 5 5 5 5 5 7 6 5 3 4 5 6 7 6 6 4 4 4 3 3 2 2 2 3 3 4 3
26 25 24 23 21 21 20 17 16 14 12 10 9 8 8 6 5 4 5 5 6 6 5 4 4 4 5 5 7 7 6 4 3 3 2 2 1 1 1 2 3 4 5
25 24 24 24 22 22 17 18 14 13 13 12 12 11 12 9 6 6 5 6 6 6 5 4 3 4 5 6 8 7 4 3 2 3 2 2 1 1 1 2 2 4 4
25 25 25 25 25 22 19 18 15 14 12 10 11 10 11 11 9 8 6 7 8 6 6 7 6 7 7 9 9 6 4 2 2 1 1 1 1 1 2 2 2 2 4
29 28 26 26 27 27 21 19 13 14 10 8 9 12 11 12 11 10 8 7 10 7 6 6 6 7 4 7 4 4 3 3 2 4 4 3 4 3 3 3 3 3 3
32 30 29 29 28 30 24 19 17 14 12 11 8 10 13 14 13 11 9 7 8 6 6 7 6 6 5 5 6 2 3 2 2 2 3 5 6 5 4 4 3 3 4
34 31 30 30 31 29 31 23 22 20 18 17 13 12 12 15 15 13 12 10 9 7 7 6 5 4 5 6 5 3 2 2 2 3 3 3 6 7 6 5 5 4 5
33 32 31 31 34 31 31 29 27 22 19 15 15 15 15 15 16 16 14 13 10 8 8 7 6 6 6 6 6 5 3 2 2 2 1 2 5 7 7 8 8 7 7
34 32 32 33 35 37 34 34 32 26 22 18 17 18 17 15 15 16 16 15 12 9 8 8 8 8 7 6 7 6 6 4 4 3 3 2 4 3 6 10 11 10 10
Wind_Direction
142 140 137 132 129 127 127 127 136 137 138 135 132 137 138 136 129 124 120 116 109 95 87 82 87 92 96 102 104 108 109 108 108 112 107 102 104 103 102 98 96 96 95
143 143 136 131 130 127 127 128 128 127 127 129 135 136 137 138 138 133 126 120 112 103 95 89 93 96 101 103 106 107 110 107 106 112 107 100 107 106 104 105 101 103 99
141 140 138 134 131 125 128 122 124 125 124 126 131 133 136 138 140 134 127 124 121 109 99 95 96 97 102 108 109 114 115 117 117 126 115 105 105 112 106 102 103 100 99
142 142 141 136 131 128 128 129 127 125 126 125 123 127 129 126 133 130 130 126 130 114 101 98 99 102 102 96 103 103 110 112 116 116 111 106 106 109 110 107 106 102 102
144 144 144 137 136 130 128 129 126 122 122 122 123 119 123 127 131 122 123 110 107 105 107 108 102 104 102 103 112 104 113 112 113 102 109 111 110 108 103 104 99 101 104
145 144 145 138 136 132 127 127 127 119 125 120 119 116 112 112 113 110 106 113 108 105 112 113 110 106 105 101 110 113 120 124 107 106 105 110 108 109 102 102 105 104 101
148 147 147 140 140 137 131 129 127 118 119 117 116 111 111 108 108 106 102 102 104 109 110 113 116 109 106 107 121 130 121 120 118 112 110 109 107 111 109 107 102 104 104
148 150 148 146 142 143 132 136 131 125 122 121 119 119 120 118 110 104 102 101 102 108 112 117 116 105 100 103 112 116 120 114 114 109 109 105 111 109 111 112 108 104 106
153 151 151 146 145 145 135 137 136 127 122 121 118 120 119 113 107 105 107 102 100 105 115 120 117 106 98 102 105 102 105 110 111 107 98 97 104 110 113 117 117 114 110
158 158 155 153 152 149 144 144 141 135 130 125 121 122 118 110 106 104 96 97 96 100 110 124 121 105 93 90 105 97 106 107 108 103 100 113 112 110 117 114 117 116 117
163 164 161 159 157 154 151 151 141 136 136 133 131 135 131 122 114 107 101 101 102 100 106 114 117 114 99 92 103 100 97 104 103 107 106 119 113 110 117 118 121 121 115
167 170 168 167 164 159 157 155 148 145 149 146 142 143 140 134 125 117 119 114 112 115 119 119 122 117 102 97 109 100 100 107 100 109 115 113 116 122 118 123 124 120 118
169 172 175 173 171 167 165 158 155 156 157 153 152 149 148 145 140 133 133 119 110 130 109 113 120 114 113 97 103 104 107 102 111 113 124 121 118 111 122 123 116 111 109
173 178 179 179 177 175 167 164 166 164 163 162 166 164 159 151 145 141 124 108 117 120 114 106 103 126 145 144 123 110 116 107 119 123 127 123 140 121 126 111 120 111 125
180 182 185 183 184 181 175 172 173 172 172 179 187 188 176 170 158 147 134 114 111 107 110 85 86 89 73 165 166 126 115 110 126 125 127 145 133 141 140 112 118 131 128
184 186 187 189 188 187 184 182 182 182 181 182 188 171 176 182 167 160 149 134 120 113 123 105 101 83 77 83 151 145 126 111 120 128 133 144 167 154 130 148 167 171 173
186 186 189 191 192 193 192 190 190 189 187 189 194 198 191 180 164 158 156 146 144 134 134 151 153 104 81 83 123 133 130 114 113 133 134 132 202 211 184 176 153 182 175
186 190 189 191 196 196 197 195 194 195 192 190 195 198 195 185 171 180 168 169 162 138 128 130 162 129 95 104 112 126 127 115 118 143 135 142 183 193 245 212 233 258 258
192 190 191 192 198 198 201 200 199 201 204 209 216 224 224 209 204 195 197 175 164 153 153 138 109 132 115 109 128 123 118 114 123 135 126 136 208 202 222 250 238 249 253
198 196 196 195 200 201 199 201 203 206 214 223 232 240 230 223 220 210 205 186 186 174 142 158 154 147 134 128 144 123 117 127 141 142 141 119 159 238 263 243 262 282 281
201 199 200 198 202 199 200 195 199 206 216 230 233 218 214 217 216 219 212 199 194 174 157 195 160 154 141 138 111 112 96 154 195 183 174 205 204 248 269 278 269 307 303
204 203 200 203 203 203 199 198 195 195 211 211 219 212 208 209 213 218 215 208 210 198 193 174 166 148 136 168 143 135 149 152 200 207 229 246 236 241 259 270 274 275 302
205 205 203 204 206 206 201 198 204 203 214 212 208 204 211 207 213 218 219 222 210 185 197 199 179 158 146 173 175 136 168 158 179 178 217 228 239 247 247 257 264 265 282
205 204 205 207 209 209 208 201 201 202 202 207 205 205 204 206 214 219 222 225 224 218 224 193 178 184 165 163 164 180 153 132 201 169 226 246 237 241 247 261 266 267 278
203 203 204 206 211 209 207 205 205 210 214 209 210 215 212 211 214 219 223 226 230 229 210 213 213 213 198 190 187 171 174 179 210 257 70 185 249 247 249 255 253 254 254
204 203 202 203 211 214 211 212 211 208 210 212 211 215 215 214 215 217 219 224 227 233 230 226 218 228 230 226 207 199 205 222 232 222 258 280 293 269 246 242 249 248 247
Height
824 825 827 828 830 831 832 833 834 835 837 838 839 841 842 843 844 845 845 846 847 848 848 849 849 848 849 850 850 850 851 852 854 854 854 855 855 856 857 858 858 859 859
824 826 827 829 831 832 834 835 836 838 839 840 841 843 844 844 846 847 847 849 849 850 851 850 849 850 851 851 852 852 853 854 855 856 857 858 859 859 860 861 861 861 861
826 828 830 830 832 834 836 837 838 840 841 842 844 845 845 846 847 849 850 851 852 852 853 852 852 852 852 853 854 855 855 856 856 857 859 861 862 862 863 863 863 863 864
826 829 831 832 833 835 837 839 841 842 843 844 846 847 847 848 850 851 852 853 854 854 854 854 854 855 855 856 857 857 858 858 858 859 861 862 864 864 865 865 866 866 867
827 830 832 833 835 837 840 841 843 844 845 847 848 849 850 850 852 853 855 856 855 855 856 856 857 857 857 857 858 859 860 860 860 862 864 865 866 867 867 868 869 870 870
829 832 834 836 837 840 842 843 845 846 848 849 850 850 851 852 854 856 857 858 857 857 857 858 859 860 860 860 860 860 862 862 863 865 866 867 869 870 871 871 872 872 872
830 834 836 838 839 842 844 845 847 848 850 851 852 853 854 855 856 858 859 859 859 859 859 860 861 861 861 861 862 862 864 864 866 868 869 870 871 872 873 873 873 874 875
831 835 838 840 842 844 845 847 849 850 852 853 854 855 857 857 858 860 861 861 861 862 861 861 862 863 863 863 865 865 866 867 869 871 872 873 873 874 875 875 876 877 877
833 836 839 842 844 846 847 849 851 852 854 856 857 858 859 860 861 862 863 864 864 864 863 864 864 865 865 866 867 867 868 869 872 873 874 875 876 876 877 876 878 878 879
834 837 840 843 845 848 850 851 852 854 856 857 859 860 861 862 863 864 865 866 866 866 866 866 866 866 867 868 870 871 870 871 874 876 877 878 877 877 879 879 880 880 881
835 838 841 844 846 848 851 852 854 856 857 859 860 861 862 863 865 866 868 868 868 868 868 869 868 869 870 870 871 872 872 874 876 878 879 878 879 880 880 881 882 883 883
833 838 841 844 847 849 851 854 856 858 859 860 861 862 863 864 866 867 868 870 869 869 870 870 871 871 872 874 874 873 875 876 878 879 880 881 881 882 883 883 883 884 885
831 837 841 844 846 849 851 854 856 858 860 861 861 862 864 865 867 868 868 869 871 870 872 872 872 873 874 875 875 876 877 878 879 880 881 882 884 884 884 884 885 885 886
831 836 840 844 846 848 851 854 856 858 859 861 861 863 865 866 867 867 869 870 871 872 872 873 873 873 875 875 876 877 878 879 880 881 883 883 883 884 885 885 886 886 887
831 835 839 842 844 847 850 853 855 857 859 861 861 863 865 866 867 868 869 870 871 872 873 873 874 874 875 875 877 879 880 881 881 883 884 884 885 885 886 887 887 887 888
830 834 838 841 844 846 849 851 854 857 859 860 861 863 865 866 867 869 870 871 872 873 874 874 874 875 876 876 878 880 881 882 883 884 885 885 885 886 887 887 887 887 888
827 832 836 840 843 845 848 851 854 856 859 860 862 864 865 867 867 869 870 871 873 873 874 874 875 875 877 878 879 881 882 883 884 885 886 887 887 887 888 887 887 888 889
826 830 834 838 841 844 847 850 853 856 859 860 862 864 866 867 867 869 870 871 872 874 874 876 876 877 878 879 880 882 883 884 885 885 886 887 887 888 888 889 888 888 889
824 828 832 836 839 843 846 849 852 855 858 860 861 863 866 867 867 869 870 871 872 873 875 875 876 877 879 880 882 883 884 885 886 887 887 888 888 889 889 889 888 888 889
823 826 830 834 837 841 845 848 851 854 856 858 860 861 864 866 867 868 869 871 872 873 875 875 876 877 879 880 882 884 885 886 886 887 887 888 888 888 888 889 889 889 889
820 824 827 830 833 838 842 846 849 852 854 857 858 860 862 864 867 868 869 871 871 872 875 875 876 877 879 880 881 885 886 886 886 887 887 888 888 888 889 889 890 890 890
816 819 823 827 830 834 839 844 847 849 853 855 857 859 861 863 866 867 869 870 871 871 872 873 875 877 878 880 882 883 883 887 886 887 887 887 888 889 889 889 889 889 889
809 814 818 822 827 831 836 841 844 847 851 854 856 858 860 863 865 867 868 869 870 872 872 873 874 875 877 880 880 882 882 881 884 885 885 886 886 888 889 888 888 888 887
801 808 813 818 823 828 832 837 841 843 847 850 854 856 859 861 863 865 867 868 869 871 872 872 873 875 876 878 881 881 881 883 881 882 884 885 885 886 887 887 887 887 886
796 801 807 813 818 823 827 832 836 841 844 847 851 854 857 859 861 863 865 867 868 869 870 871 872 874 876 878 879 881 883 883 882 882 880 882 883 884 885 885 885 886 885
789 795 800 806 811 817 822 827 831 835 840 844 847 852 854 857 858 860 862 865 867 867 868 869 871 873 875 876 878 880 881 881 881 882 881 882 882 883 883 883 882 883 883